Lapse_Rate
2.6 2.2 2.1 2.9 6.4 6.5 6.5 6.5 6.5 6.5 6.5 5.1 4.6 5.9 6.3 5.3 6.5 6.5 1.7 0.8 0.2 -0.9 -0.5 0.3 0.7 0.7 0.5 0.1 0.5 1.2 1.8 2.3 2.8 3.2 3.4 3.3 3.3 3.4 3.6 3.9 4.3 4.9 5.1 5.5 5.6 5.7 5.6 5.3 4.9
2.4 3.6 2.7 2.8 6.5 6.5 6.5 6.5 6.5 6.5 5.9 4.8 5.4 5.5 6.2 6.5 5.3 2.8 2.2 0.8 0.7 -0.8 -1.3 -0.3 0.4 0.6 0.4 0.2 0.7 1.3 2.0 2.4 2.8 3.2 3.5 3.5 3.5 3.5 3.6 3.9 4.2 4.8 5.3 5.8 5.9 5.8 5.3 4.8 4.4
4.1 5.2 3.5 6.5 6.5 6.5 6.5 6.5 6.5 6.2 5.6 5.2 5.8 5.7 5.7 6.2 4.3 3.2 2.6 1.0 0.2 -1.1 -0.8 -0.3 -0.2 0.2 0.5 0.2 0.6 1.2 1.9 2.4 2.9 3.3 3.6 3.8 3.9 3.9 4.0 4.1 5.3 5.1 5.4 5.9 6.1 5.8 5.1 4.3 4.3
4.0 3.8 3.2 6.5 6.5 6.5 6.5 6.5 6.5 6.5 5.4 5.0 5.4 6.5 5.8 4.3 4.7 3.5 2.2 1.0 -0.1 -0.7 -0.3 -0.7 -0.3 0.1 0.3 0.4 0.5 0.9 1.6 2.4 2.8 3.2 3.6 4.1 4.4 4.5 4.6 4.5 5.2 5.2 5.5 5.8 6.1 5.3 5.1 4.4 4.4
2.5 2.7 6.5 6.5 6.5 6.5 6.5 6.0 6.2 6.5 6.1 5.4 5.2 6.2 5.8 5.6 3.5 2.5 1.3 1.0 -0.6 -0.7 -1.0 -0.7 -0.4 -0.1 0.2 0.3 0.4 0.8 1.4 2.2 2.6 3.1 3.5 4.2 4.5 4.9 5.0 5.0 5.4 5.5 5.9 6.5 6.5 6.6 5.5 4.7 4.8
4.3 3.5 6.5 6.5 6.5 6.5 6.5 5.4 5.9 6.4 6.1 5.4 5.5 5.7 4.9 4.3 3.5 2.7 1.9 0.8 0.1 -1.6 -1.3 -0.8 -0.3 0.1 0.2 0.3 0.5 0.7 1.1 1.8 2.5 3.1 3.4 4.0 4.5 5.0 5.3 5.5 6.1 6.7 7.0 6.4 6.9 5.7 6.6 6.1 5.2
5.9 6.5 6.5 6.5 6.5 6.5 6.5 5.3 6.3 6.2 6.1 5.8 5.2 6.5 5.6 4.7 3.8 2.3 2.1 0.3 -0.7 -1.4 -1.6 -1.1 -0.6 -0.1 0.4 0.4 0.5 0.6 1.0 1.5 2.3 2.9 3.2 3.6 4.6 5.2 5.6 5.8 5.6 5.2 5.1 4.5 4.9 4.6 5.8 7.5 6.1
3.7 6.5 6.5 6.5 6.5 6.5 6.2 6.0 6.5 5.6 6.0 5.5 6.2 6.5 6.3 5.3 3.0 2.1 2.1 1.3 -0.3 -1.0 -1.4 -1.4 -1.2 -0.8 -0.6 -0.1 0.4 0.6 1.1 1.4 2.2 3.0 3.3 3.5 4.5 5.3 4.5 4.3 4.3 4.3 3.9 3.7 3.6 3.1 2.7 6.7 7.5
5.8 6.5 6.5 6.5 6.5 6.5 6.4 6.5 6.4 6.6 5.8 5.1 5.1 5.6 4.3 3.0 3.3 2.8 2.0 1.5 0.7 -0.1 -0.8 -1.3 -1.3 -1.2 -0.8 -0.4 0.2 0.8 1.4 1.8 2.1 2.9 3.5 3.4 3.8 3.7 4.0 3.6 3.8 3.7 3.0 3.2 3.6 3.5 3.2 5.2 7.2
6.0 6.5 6.5 6.5 6.6 6.5 6.1 6.3 6.1 6.2 6.1 5.5 5.1 4.9 5.7 4.6 4.4 3.5 2.5 2.0 1.6 0.5 -0.3 -0.5 -1.0 -0.9 -0.8 0.7 0.2 0.3 0.8 1.3 1.3 2.4 2.7 2.6 2.9 2.8 3.0 3.1 3.5 2.5 2.9 3.2 4.0 3.4 4.0 4.9 5.4
5.7 6.5 6.5 6.3 5.9 5.5 6.3 6.3 6.4 6.3 6.5 5.7 4.8 4.5 6.1 5.5 3.8 3.5 3.3 3.0 2.3 1.6 0.7 -0.2 -0.3 -0.2 -0.3 0.4 -0.3 0.1 0.7 0.6 1.1 2.3 2.3 2.1 2.2 2.6 2.4 2.4 3.0 2.9 3.2 3.1 3.6 3.5 3.6 4.5 4.4
6.5 6.1 6.1 6.0 6.1 6.2 6.5 6.3 6.3 5.5 5.8 5.3 4.1 4.1 4.9 5.7 4.4 2.3 2.7 2.5 3.3 2.1 1.6 0.5 0.4 0.5 0.6 0.1 0.1 0.5 0.5 0.5 1.1 1.7 2.2 2.4 2.4 2.5 2.6 3.0 3.0 2.5 2.5 2.7 2.6 3.2 4.6 4.3 4.5
6.5 6.5 6.3 5.9 5.6 5.9 6.0 6.2 6.1 5.9 4.8 4.1 4.0 4.3 3.8 3.4 3.6 3.9 2.1 1.1 1.5 2.7 2.4 1.5 1.0 1.3 1.1 0.8 0.1 1.0 1.2 1.3 1.7 1.7 2.5 2.6 2.3 2.2 2.7 2.4 3.0 2.9 2.9 3.4 2.5 3.6 3.9 4.4 4.5
5.9 6.0 5.9 5.4 5.3 5.4 6.4 6.2 5.4 5.9 4.1 4.1 4.4 4.2 4.0 3.7 3.5 2.4 3.0 2.6 1.5 2.1 2.2 1.6 1.9 2.2 1.6 1.0 0.8 0.7 1.5 1.8 2.2 2.1 2.5 2.0 2.3 1.9 2.0 1.9 2.9 3.3 3.6 3.7 3.2 3.2 3.6 3.8 4.4
6.1 6.5 6.5 6.4 6.1 6.4 5.7 6.5 6.5 4.5 3.5 3.9 5.0 5.1 4.9 5.1 3.9 2.9 2.4 2.7 3.5 1.5 2.2 1.1 1.4 1.9 2.1 1.4 1.3 0.7 0.5 1.5 2.9 2.5 2.7 2.3 2.2 2.0 1.9 2.2 2.1 3.0 3.8 3.9 3.9 3.2 3.3 3.3 4.2
6.5 6.5 6.5 6.5 6.6 6.0 6.0 6.5 6.5 5.1 5.2 5.7 5.8 6.0 5.9 5.4 5.4 5.5 2.9 1.9 2.9 3.2 1.8 1.2 1.9 1.5 1.8 1.7 1.7 1.2 0.0 1.2 2.2 2.3 3.0 2.7 2.9 2.9 2.5 3.0 2.7 2.6 3.8 4.4 4.0 3.8 3.6 3.5 3.8
6.5 6.5 6.5 6.5 6.5 6.5 6.5 6.5 6.5 4.3 5.4 5.1 4.4 3.2 3.4 3.7 3.8 4.0 5.3 3.6 3.3 3.6 1.1 1.4 1.2 1.2 1.2 1.0 1.4 1.0 0.7 0.9 1.7 2.1 2.8 2.8 3.0 3.1 3.2 3.2 3.4 3.4 4.0 4.5 4.3 3.8 4.0 4.0 3.7
6.5 6.5 6.5 6.5 6.5 6.5 6.5 6.5 6.5 5.1 4.8 5.8 4.5 3.4 3.5 4.4 4.0 4.7 4.6 4.9 4.7 4.7 1.0 1.6 1.8 1.3 1.0 0.6 1.4 1.5 1.7 1.2 3.1 2.4 3.0 3.1 3.2 3.1 3.5 4.2 3.4 4.0 4.3 4.2 4.0 4.1 3.4 4.3 4.2
6.5 6.5 6.5 6.5 6.5 6.5 6.5 6.5 6.5 6.2 5.2 5.9 5.5 5.6 5.4 5.7 5.3 3.8 4.1 3.5 4.1 4.0 1.2 1.8 1.6 0.9 0.9 0.6 1.1 1.1 2.0 1.9 1.6 2.6 2.9 3.3 3.6 3.9 4.5 3.8 3.7 4.2 4.1 3.7 3.5 3.7 4.4 4.6 4.7
6.5 6.5 6.5 6.5 6.5 6.5 6.5 6.5 6.5 6.5 6.4 5.9 6.0 5.8 5.9 6.2 6.4 5.9 4.3 2.8 2.0 1.8 2.2 1.6 1.4 0.1 1.0 1.0 1.7 1.0 1.1 0.9 1.2 0.8 2.7 2.8 3.1 3.8 4.0 4.2 4.0 3.9 3.9 4.1 3.8 3.9 4.4 4.4 4.7
6.5 6.5 6.5 6.5 6.5 6.5 6.5 6.5 6.5 6.5 6.0 5.6 5.9 5.6 5.2 5.6 6.5 6.1 6.6 2.8 1.8 0.8 1.3 1.9 1.2 0.4 1.1 0.6 -0.7 0.6 0.1 0.1 1.0 2.0 2.4 3.0 3.5 3.6 4.0 4.5 4.7 4.1 4.1 4.1 3.9 4.1 4.6 5.0 4.8
6.5 6.5 6.5 6.5 6.5 6.5 6.5 6.5 6.5 6.5 6.5 6.5 6.1 6.1 6.2 6.1 4.7 4.1 2.6 1.8 0.2 0.5 1.8 2.7 1.3 0.8 0.3 -0.2 0.3 0.8 0.8 1.0 1.2 1.9 1.4 2.5 3.4 3.9 4.2 4.7 4.5 4.3 4.3 4.2 3.7 3.6 4.8 5.4 5.4
6.5 6.5 6.5 6.5 6.5 6.5 6.5 6.5 6.5 6.5 6.5 6.5 6.5 6.8 7.0 5.1 6.5 5.8 2.7 0.1 -1.3 0.8 2.2 3.1 1.6 0.5 0.3 0.7 0.4 1.1 1.0 0.3 -0.2 0.6 2.0 2.7 3.1 3.5 4.1 4.2 4.5 4.4 4.4 4.4 4.6 4.4 4.7 4.8 5.4
6.5 6.5 6.5 6.5 6.5 6.5 6.5 6.5 6.5 6.5 6.5 6.5 6.5 7.0 7.3 5.0 5.3 6.3 5.6 1.6 -1.4 -2.0 4.0 3.9 2.8 0.8 1.5 0.8 1.0 1.2 1.0 1.1 1.2 2.2 3.2 3.3 4.0 3.9 3.7 4.4 4.6 4.6 5.0 4.9 4.7 4.7 4.8 4.9 5.3
6.5 6.5 6.5 6.5 6.5 6.5 6.5 6.5 6.5 6.5 6.5 6.5 6.5 6.8 7.3 6.6 5.7 6.0 6.2 2.4 0.1 0.5 0.9 4.6 4.0 2.2 0.6 0.8 0.6 1.7 2.5 1.9 1.7 2.3 3.4 3.5 4.5 4.1 4.7 4.5 4.5 4.8 4.7 4.5 5.1 5.0 5.0 5.1 5.1
6.5 6.5 6.5 6.5 6.5 6.5 6.5 6.5 6.5 6.5 6.6 6.9 7.0 7.1 6.2 4.3 6.6 6.0 6.4 3.7 1.6 -0.5 1.4 2.4 2.1 0.8 0.5 1.2 1.9 3.3 2.8 2.6 2.3 3.0 3.3 3.6 3.8 3.6 3.6 4.3 4.4 4.2 4.5 4.7 4.9 5.3 5.1 4.8 5.2
6.5 6.5 6.5 6.5 6.5 6.5 6.5 6.5 6.5 6.5 6.5 6.5 6.7 6.9 7.0 7.3 7.0 6.8 4.5 2.6 2.3 0.8 0.1 2.3 2.8 1.8 0.7 1.4 3.0 3.3 3.2 2.7 2.9 2.9 3.2 3.6 3.9 3.9 3.6 3.6 3.8 3.7 3.9 4.6 4.5 4.9 4.9 5.0 5.0
6.5 6.5 6.5 6.5 6.5 6.5 6.5 6.5 6.5 6.5 6.5 6.5 6.5 6.6 7.0 7.4 7.3 5.8 4.4 2.3 2.3 1.7 0.9 1.9 2.1 2.7 1.4 1.2 2.3 3.2 3.8 3.5 3.6 3.4 3.7 3.9 3.6 4.1 3.7 3.6 3.5 3.9 3.9 4.3 4.6 4.9 4.6 4.9 4.7
6.5 6.5 6.5 6.5 6.5 6.5 6.5 6.5 6.5 6.5 6.5 6.5 6.5 6.9 7.0 7.2 7.3 6.0 4.4 3.2 2.1 1.8 0.7 1.2 0.4 2.1 2.4 2.1 2.0 3.6 3.9 4.3 4.1 4.1 3.9 3.8 3.6 3.8 3.7 3.9 3.6 3.3 3.8 4.5 4.4 4.4 4.6 5.1 4.8
6.5 6.5 6.5 6.5 6.5 6.5 6.5 6.5 6.5 6.5 6.5 6.5 6.7 7.0 7.2 7.1 7.2 6.4 4.7 3.3 2.2 0.8 0.4 -2.0 -1.0 1.3 4.0 3.6 3.1 4.0 4.1 4.5 4.5 4.3 4.1 3.9 3.7 3.4 3.7 4.0 3.9 3.7 4.2 4.0 4.5 4.6 4.4 4.6 4.8
Wind_Speed
3 2 2 4 3 4 4 10 4 12 5 3 7 3 6 5 4 5 2 10 16 14 13 14 13 16 18 20 19 18 18 17 16 14 14 15 16 18 18 17 17 18 21 21 20 18 18 19 19
2 3 4 2 4 3 6 5 9 16 5 10 14 6 3 4 3 7 6 9 16 16 15 13 15 14 17 19 18 17 17 17 17 16 14 15 15 17 18 18 19 19 19 19 19 18 18 19 19
1 2 3 4 5 8 5 6 14 6 8 10 5 3 3 3 3 9 8 15 15 13 14 15 17 16 16 19 19 18 17 17 16 16 14 14 15 17 17 17 20 18 19 19 18 18 18 20 20
2 3 3 2 11 7 5 9 2 11 10 10 6 5 2 3 13 9 14 14 13 12 12 16 17 17 16 17 19 18 18 17 17 17 16 15 15 16 17 18 18 17 17 18 18 19 19 19 21
3 3 2 4 7 7 7 15 12 14 7 12 5 6 4 2 9 20 17 16 16 11 9 15 18 16 16 17 18 18 18 17 17 17 16 15 15 15 16 17 18 18 18 16 16 16 18 18 20
1 3 1 9 11 4 8 11 6 14 16 13 7 6 5 4 16 14 14 11 13 14 11 12 15 15 16 16 18 19 19 18 16 16 16 15 15 15 16 17 17 15 11 6 8 11 16 19 18
5 4 5 3 3 5 12 4 4 10 12 10 4 8 1 3 6 14 14 12 13 14 13 8 11 13 14 16 18 19 19 19 18 18 17 17 16 16 17 14 14 17 16 14 14 14 11 19 21
4 3 4 4 7 7 9 7 4 7 11 10 4 4 3 5 8 9 10 9 10 10 14 13 9 10 9 10 16 17 18 19 18 18 19 19 17 15 15 20 21 20 18 19 19 16 11 24 26
4 3 4 5 6 9 16 15 11 4 5 7 10 9 3 7 12 12 10 6 7 7 7 10 11 8 9 7 10 15 17 17 16 13 16 16 12 14 18 17 20 22 19 17 17 15 15 20 25
5 5 7 8 9 8 12 16 21 9 7 7 7 9 11 9 11 14 11 11 8 10 9 9 10 11 8 7 7 8 10 10 11 11 11 12 13 13 13 14 17 18 16 17 14 11 8 15 9
5 10 5 7 10 12 14 18 17 16 12 6 9 9 3 6 8 8 9 15 14 13 9 11 12 11 11 7 5 5 7 7 8 11 11 11 10 11 9 9 9 12 16 10 9 13 13 8 6
6 9 9 10 15 14 17 20 20 12 12 8 9 8 4 7 10 9 8 10 12 12 15 15 14 14 12 8 7 6 5 5 4 8 12 9 4 5 5 5 10 9 9 10 9 8 11 7 8
8 14 14 14 14 16 16 18 20 19 8 11 10 9 10 8 10 10 10 8 11 14 13 14 14 13 12 12 9 7 6 6 7 8 13 13 8 8 6 6 9 9 11 10 6 9 9 9 11
8 9 7 7 8 6 6 9 5 7 11 13 8 12 11 10 10 9 10 11 7 14 16 14 13 12 14 11 13 9 7 6 6 7 12 14 10 7 7 7 7 6 12 12 10 7 7 7 7
4 5 7 4 4 5 3 19 10 9 9 14 18 18 15 18 11 12 11 12 14 9 16 16 16 14 14 11 11 9 7 7 7 6 14 14 13 9 9 7 7 7 12 12 10 5 4 3 5
6 3 3 1 6 7 6 18 15 14 12 19 23 16 16 17 17 17 11 10 12 13 16 17 14 15 14 13 10 7 6 7 7 6 11 14 13 14 9 8 7 10 11 9 8 8 6 4 4
4 5 10 9 5 8 6 12 10 11 11 10 10 9 10 10 11 11 17 13 14 16 13 17 16 17 16 12 11 9 6 7 6 7 7 11 13 15 8 8 8 13 8 8 8 6 6 4 4
5 4 7 7 5 5 13 13 13 11 10 14 10 10 10 11 13 14 11 14 16 16 13 19 16 17 14 10 7 6 5 5 6 6 7 11 10 13 7 7 9 9 7 7 7 8 3 4 6
8 9 14 15 11 5 8 13 17 13 10 14 13 16 16 18 15 11 12 10 13 13 14 18 17 15 13 11 10 8 9 6 5 3 6 8 9 12 10 6 8 8 8 9 9 5 9 4 5
10 13 17 16 13 6 15 21 20 12 10 16 18 16 18 21 19 19 11 9 9 10 14 19 20 20 17 13 10 6 9 4 5 4 4 5 6 7 9 10 9 10 6 10 10 9 5 3 7
10 9 6 11 8 7 5 17 16 7 8 12 15 8 13 16 21 21 17 10 10 9 14 19 21 21 16 15 8 6 5 4 3 5 3 4 7 7 8 9 9 9 8 9 10 9 11 8 5
12 8 7 7 5 10 4 11 7 8 16 17 12 10 12 18 23 12 9 10 10 9 16 21 21 21 16 18 12 17 13 11 5 7 3 4 6 6 8 9 9 9 7 9 9 9 8 8 9
7 6 5 5 5 6 16 5 4 9 10 19 20 15 15 16 17 18 16 13 11 4 14 18 20 19 18 18 14 12 11 5 6 5 7 5 5 6 8 10 10 10 7 7 9 9 9 8 9
1 2 4 3 1 9 18 7 2 2 6 16 18 19 15 17 18 18 16 14 14 12 4 13 19 18 17 15 16 15 14 11 9 8 7 6 5 5 7 8 8 8 8 10 9 10 11 10 10
4 5 3 4 0 6 4 4 5 4 12 11 13 15 16 16 16 18 19 18 15 13 9 9 14 16 17 16 15 15 14 13 14 11 7 7 7 5 7 8 8 8 9 9 10 10 10 12 12
8 8 5 6 4 10 8 6 2 5 8 10 8 9 17 22 16 16 16 15 15 17 6 13 10 8 14 15 14 13 12 8 8 9 8 7 6 6 6 5 6 7 8 9 11 10 10 10 11
4 5 9 5 7 6 4 2 2 5 5 5 9 11 12 13 16 16 17 17 17 17 15 4 16 17 14 15 14 12 11 11 9 9 9 6 5 4 6 4 5 6 7 8 9 9 11 12 13
5 1 1 2 3 5 4 4 2 6 8 9 7 9 9 10 14 16 16 17 16 15 14 11 5 8 12 14 13 11 11 12 10 9 9 8 6 7 7 7 7 8 7 7 8 7 10 12 10
9 6 5 4 4 4 4 4 4 7 6 6 5 9 11 14 14 14 15 15 15 15 15 10 13 8 4 4 9 10 9 10 11 9 8 8 8 7 8 8 6 5 5 5 6 5 8 13 10
9 5 3 3 5 4 4 9 6 8 5 9 9 9 8 10 12 13 14 14 14 16 16 17 15 12 7 2 8 9 11 9 9 8 8 8 8 7 7 6 6 5 4 4 6 8 7 12 11
Wind_Direction
167 104 41 41 68 70 233 246 277 278 317 233 296 248 193 190 174 208 91 127 133 140 156 170 169 153 145 137 138 136 134 133 133 135 139 136 136 137 138 140 140 147 148 150 150 145 140 135 132
190 137 44 79 108 146 244 241 233 237 237 303 319 254 282 256 95 130 113 147 147 145 152 160 162 156 146 139 140 140 142 143 143 144 149 146 143 143 145 148 152 152 151 153 152 148 143 138 135
300 82 97 150 179 217 229 221 233 297 313 299 253 226 228 184 82 145 138 148 139 144 152 157 158 154 152 144 145 147 149 150 152 150 155 154 153 152 152 157 158 156 157 160 160 153 148 143 143
164 25 13 179 234 272 228 277 246 318 301 276 274 267 290 278 155 154 139 140 132 145 149 153 156 156 156 152 149 151 154 160 161 160 162 162 166 163 163 166 163 164 166 167 166 153 155 146 144
31 57 206 229 251 253 273 270 291 289 273 274 268 253 211 287 139 141 149 153 145 145 143 153 158 159 158 155 154 157 161 168 170 168 166 169 174 174 175 177 175 170 178 179 174 169 151 154 148
42 111 169 232 237 262 274 258 282 280 278 277 241 224 222 158 138 154 151 145 144 139 139 148 159 162 160 160 161 162 165 171 177 175 170 175 182 181 187 188 187 184 187 154 151 146 179 169 154
152 121 226 249 269 247 252 193 233 277 319 308 266 174 161 254 161 151 149 137 142 139 135 142 155 158 163 165 165 165 169 172 181 181 178 179 187 188 192 193 164 140 141 141 150 148 203 191 165
147 130 233 217 246 275 274 290 279 307 308 321 291 197 213 211 133 113 121 124 129 143 145 150 149 147 156 172 168 165 169 173 183 187 190 183 184 189 157 153 147 140 152 156 164 170 163 213 174
138 247 231 240 230 254 292 299 290 295 315 325 336 328 236 154 122 111 115 108 125 135 154 154 149 148 156 169 175 168 169 176 176 177 188 167 162 150 153 161 155 159 163 162 173 173 151 246 181
174 216 235 241 257 275 283 282 292 311 314 307 331 355 357 340 149 150 156 160 165 163 172 166 158 157 155 170 176 176 167 175 164 169 172 152 155 153 163 167 154 158 171 168 169 135 173 213 181
209 241 267 272 279 276 275 289 280 288 279 265 277 291 202 275 290 181 181 175 182 181 164 177 163 164 162 167 168 185 173 172 170 174 165 140 137 144 149 149 160 156 160 144 124 148 137 193 191
257 270 259 263 260 266 269 270 276 251 263 234 243 239 200 179 256 269 222 192 186 176 183 178 173 167 173 161 170 180 177 181 180 175 157 145 145 153 153 166 175 157 151 137 149 143 154 177 214
226 254 258 258 257 264 273 268 266 274 256 267 277 270 260 242 206 242 251 269 198 184 188 186 173 175 171 170 166 176 183 185 187 165 166 158 159 165 158 170 168 164 164 166 161 163 179 179 213
269 274 281 270 250 244 262 263 273 291 285 292 274 278 270 243 243 202 223 241 227 198 188 182 184 184 170 173 173 176 179 180 173 168 174 163 160 160 163 161 165 172 176 177 167 174 184 190 197
248 292 302 238 266 277 340 282 265 273 288 285 281 275 267 269 240 236 219 208 222 203 197 182 186 178 177 179 175 171 173 173 179 170 172 165 162 160 159 166 163 172 177 178 171 177 179 182 167
345 316 301 269 307 283 116 284 292 283 277 276 271 273 277 276 271 271 235 211 215 224 184 189 183 182 180 174 176 167 162 169 172 162 170 167 167 164 161 172 172 167 172 180 187 188 177 182 161
321 266 285 298 242 265 190 278 288 300 295 289 271 271 263 265 276 266 262 225 217 218 187 186 181 183 181 173 167 158 150 152 160 158 167 171 170 170 168 177 173 168 178 188 189 187 169 161 149
227 239 260 239 265 264 287 276 268 273 281 280 272 262 256 257 248 259 249 249 237 224 178 179 180 182 164 158 151 142 146 148 151 158 171 175 172 166 170 173 165 168 174 179 188 184 166 171 173
237 273 273 275 274 253 257 273 284 283 286 289 289 290 284 277 265 247 246 240 237 232 175 173 168 171 158 166 164 164 170 170 157 158 169 178 177 173 172 159 160 165 174 189 184 166 166 164 171
235 254 268 281 270 256 293 284 282 271 260 268 275 282 280 279 278 267 248 240 230 205 183 170 173 172 177 166 180 166 159 164 152 143 185 179 166 169 168 166 172 172 171 182 181 172 171 163 175
243 233 236 273 292 269 280 285 286 278 283 280 279 307 352 334 287 264 251 231 227 185 175 175 174 177 173 153 138 121 99 91 117 178 188 189 167 163 163 174 175 175 187 188 183 182 180 183 171
252 253 287 280 309 293 122 289 302 287 296 295 291 19 1 357 356 350 355 349 322 206 184 179 176 172 167 154 156 163 169 164 175 183 159 172 165 167 163 171 173 174 183 185 191 181 185 172 175
245 211 258 289 270 320 284 248 303 347 3 8 3 0 346 14 351 349 346 342 335 266 183 180 172 168 163 160 162 161 155 146 143 146 168 178 173 166 168 174 180 180 185 180 196 188 180 178 170
296 22 338 279 217 277 279 207 353 45 358 4 346 343 347 16 349 345 343 351 351 351 198 176 171 169 158 161 163 159 155 153 151 159 174 185 192 187 173 179 182 180 188 189 191 191 188 180 177
181 75 325 320 341 237 317 331 266 318 323 332 334 329 343 9 349 343 347 359 350 337 309 180 180 160 166 163 162 157 158 155 155 162 171 174 188 189 180 181 188 192 195 192 191 190 195 187 173
187 161 169 243 241 287 311 264 1 340 317 301 311 1 1 348 352 344 338 358 351 341 271 166 184 171 162 159 160 157 156 155 148 158 163 185 185 166 153 165 182 195 193 199 201 199 192 187 175
212 152 215 253 269 286 246 106 183 338 323 25 342 26 16 337 337 339 347 1 355 353 356 234 171 178 166 163 157 158 155 145 153 156 160 172 162 155 151 173 207 209 210 206 213 205 178 182 170
354 49 290 356 279 250 257 269 236 322 324 348 358 10 9 352 353 352 357 355 355 352 350 9 21 180 168 158 159 159 159 149 155 149 160 164 141 155 158 184 200 212 202 203 204 184 169 166 167
345 335 333 281 174 245 288 256 214 241 240 287 48 26 11 7 359 356 357 358 355 358 3 359 24 57 92 172 147 137 142 142 143 152 158 154 153 164 174 192 182 173 184 185 186 176 163 178 159
277 346 32 278 327 299 260 269 199 237 350 76 40 26 18 17 8 1 3 3 5 5 2 11 23 7 57 273 143 131 122 129 145 147 141 143 165 171 175 173 177 171 169 175 182 184 175 166 172